Regional Weather Roundup
Issued by NWS

Home | Current Version | Previous Version | Text Only | Print | Product List | Glossary Off
Versions: 1 2 3 4 5 6 7 8 9 10 11 12 13 14 15 16 17 18 19 20 21 22 23 24 25 26 27 28 29 30 31 32 33 34 35 36 37 38 39 40 41 42 43 44 45 46 47 48 49 50

000
ASUS43 KDMX 172006
RWRIA

WEATHER ROUNDUP FOR IOWA
NATIONAL WEATHER SERVICE DES MOINES IA
300 PM CDT TUE OCT 17 2017

NOTE: "FAIR" INDICATES FEW OR NO CLOUDS BELOW 12,000 FEET WITH NO
SIGNIFICANT WEATHER AND/OR OBSTRUCTIONS TO VISIBILITY.

* - THESE STATIONS ARE NOT NWS STATIONS...THUS NOT UNDER NWS
QUALITY CONTROL.  THEY ALSO DO NOT REPORT WEATHER SUCH
AS PRECIPITATION OR FOG.

IAZ001>003-012>014-020>022-031>034-043>046-172100-
   NORTHWEST IOWA

CITY           SKY/WX    TMP DP  RH WIND       PRES   REMARKS
CARROLL *      SUNNY     75  46  35 SW13G18   30.01F
CHEROKEE *     SUNNY     73  46  38 S3        30.00F
DENISON *      SUNNY     70  45  40 SW8G14    30.04F
LE MARS *      SUNNY     75  43  31 S7        29.99F HAZE
ORANGE CITY *  SUNNY     75  45  33 S3        29.99F
SHELDON *      SUNNY     77  34  20 SW10      29.97F
SIOUX CITY     SUNNY     74  48  39 SE5       30.00F
SPENCER        SUNNY     76  38  25 W7        29.99F
STORM LAKE *   SUNNY     72  41  33 SW7       30.01F
$$

IAZ055>058-069>071-079>083-090>094-172100-
   SOUTHWEST IOWA

CITY           SKY/WX    TMP DP  RH WIND       PRES   REMARKS
ATLANTIC *     SUNNY     70  45  40 SW16      30.03F
AUDUBON *      SUNNY     70  45  40 S8        30.04F
CLARINDA *     SUNNY     72  45  37 S17       30.07F
COUNCIL BLFS * SUNNY     70  48  46 S10       30.03F
CRESTON *      SUNNY     72  43  35 S16G23    30.06F
HARLAN  *      SUNNY     70  45  40 S12       30.06F
LAMONI         SUNNY     71  45  39 S14G23    30.08F
RED OAK *      SUNNY     72  45  37 S15G21    30.04F
$$

IAZ047>049-059>061-072>074-084-172100-
   CENTRAL IOWA

CITY           SKY/WX    TMP DP  RH WIND       PRES   REMARKS
AMES           SUNNY     73  45  36 S14       30.03F
ANKENY *       SUNNY     72  45  37 S13G22    30.05F
BOONE *        SUNNY     73  43  33 SW13G23   30.02F
CHARITON *     SUNNY     72  43  35 S14G21    30.07F
DES MOINES     SUNNY     72  41  32 S20       30.04F
GRINNELL*      SUNNY     71  41  33 S12G22    30.08F
KNOXVILLE *    SUNNY     72  43  35 SW14G20   30.06F
MARSHALLTOWN   SUNNY     72  44  36 SW15      30.04F
NEWTON *       SUNNY     72  43  35 S14G22    30.06F
PELLA *        SUNNY     72  42  32 S12G18    30.08F
PERRY *          N/A     74  38  27 SW14      30.03F
$$

IAZ004>006-015-016-023>025-035-036-172100-
   NORTH CENTRAL IOWA

CITY           SKY/WX    TMP DP  RH WIND       PRES   REMARKS
ALGONA *       SUNNY     72  45  37 S10       30.00F
CLARION *      SUNNY     72  45  37 SW12G17   30.01F
ESTHERVILLE    SUNNY     74  40  29 VRB7      29.98F
FORT DODGE *   SUNNY     71  46  40 S13       30.02F
MASON CITY     SUNNY     70  44  39 S7        30.02F
FOREST CITY *    N/A     70  45  40 SW7       30.01F
WEBSTER CITY * SUNNY     73  43  33 S10G18    30.00F
IOWA FALLS *     N/A     72  44  37 SW14      30.04F
$$

IAZ007>011-017>019-026>030-037>042-050>054-066-172100-
   NORTHEAST IOWA

CITY           SKY/WX    TMP DP  RH WIND       PRES   REMARKS
CEDAR RAPIDS   SUNNY     72  43  35 S14G21    30.07F
CHARLES CITY * SUNNY     72  43  35 SW12G17   30.03F
CLINTON *      SUNNY     71  44  37 SW16G23   30.11F
DECORAH *      SUNNY     70  43  37 SW9G17    30.02F
DUBUQUE        SUNNY     70  45  40 SW17      30.08F
MONTICELLO *   SUNNY     73  43  33 SW13G21   30.07F
OELWEIN *      SUNNY     73  45  35 SW20      30.04F
WATERLOO       SUNNY     72  42  34 SW15      30.03F
$$

IAZ064-065-067-068-078-172100-
   EAST CENTRAL IOWA

CITY           SKY/WX    TMP DP  RH WIND       PRES   REMARKS
DAVENPORT      SUNNY     70  43  37 S15G21    30.13F
IOWA CITY      SUNNY     74  43  32 SW14G21   30.10F
MUSCATINE *    SUNNY     72  41  33 SW16G25   30.10F
QUAD CITIES    SUNNY     71  41  33 SW14      30.11F
$$

IAZ062-063-075>077-085>089-095>099-172100-
   SOUTHEAST IOWA

CITY           SKY/WX    TMP DP  RH WIND       PRES   REMARKS
BURLINGTON     SUNNY     70  43  37 S16       30.13F
FAIRFIELD *    SUNNY     70  41  35 SW15      30.10F
FORT MADISON * SUNNY     72  45  37 S12G17    30.14F
KEOKUK *       SUNNY     72  41  33 SW15      30.13F
OSKALOOSA *      N/A     72  42  34 S18       30.09F
OTTUMWA        SUNNY     71  43  36 SW18G24   30.09F
WASHINGTON *   SUNNY     72  43  35 S16G23    30.10F
$$

ABBREVIATIONS USED IN REMARKS
   TC - TEMPERATURES IN CELSIUS
  WCI - WIND CHILL INDEX
   HX - HEAT INDEX
  VSB - VISIBILITY
$$





USA.gov is the U.S. government's official web portal to all federal, state and local government web resources and services.